TimeEDT,TemperatureF,Dew PointF,Humidity,Sea Level PressureIn,VisibilityMPH,Wind Direction,Wind SpeedMPH,Gust SpeedMPH,PrecipitationIn,Events,Conditions,WindDirDegrees,DateUTC
12:11 AM,57.2,55.4,94,29.86,3.0,West,12.7,-,0.07,Rain-Thunderstorm,Thunderstorms and Rain,280,2012-10-19 04:11:00
12:56 AM,57.0,55.0,93,29.83,4.0,ESE,6.9,-,0.26,Rain-Thunderstorm,Thunderstorms and Rain,120,2012-10-19 04:56:00
1:22 AM,57.2,55.4,94,29.83,3.0,Calm,Calm,-,0.07,Rain,Rain,0,2012-10-19 05:22:00
1:56 AM,57.0,55.9,96,29.83,5.0,SSW,4.6,-,0.13,Rain,Light Rain,200,2012-10-19 05:56:00
2:56 AM,57.0,55.9,96,29.81,8.0,West,9.2,-,0.04,Rain,Light Rain,270,2012-10-19 06:56:00
3:56 AM,57.0,55.9,96,29.77,3.0,Calm,Calm,-,0.00,,Overcast,0,2012-10-19 07:56:00
4:34 AM,55.4,55.4,100,29.76,1.0,Calm,Calm,-,N/A,,Overcast,0,2012-10-19 08:34:00
4:56 AM,57.0,55.9,96,29.76,1.0,Calm,Calm,-,N/A,,Overcast,0,2012-10-19 08:56:00
5:04 AM,57.2,55.4,94,29.76,0.5,Calm,Calm,-,N/A,Fog,Fog,0,2012-10-19 09:04:00
5:56 AM,57.0,55.9,96,29.75,0.5,Calm,Calm,-,N/A,Fog,Fog,0,2012-10-19 09:56:00
6:03 AM,57.2,55.4,94,29.75,1.2,Calm,Calm,-,N/A,Fog,Fog,0,2012-10-19 10:03:00
6:12 AM,57.2,55.4,94,29.75,0.8,Calm,Calm,-,N/A,Fog,Fog,0,2012-10-19 10:12:00
6:31 AM,57.2,55.4,94,29.75,0.8,Calm,Calm,-,N/A,Fog,Fog,0,2012-10-19 10:31:00
6:56 AM,57.0,55.9,96,29.74,0.8,Calm,Calm,-,N/A,,Overcast,0,2012-10-19 10:56:00
7:56 AM,57.0,55.9,96,29.76,0.8,WNW,6.9,-,0.00,,Overcast,300,2012-10-19 11:56:00
8:26 AM,57.2,57.2,100,29.76,1.5,WNW,5.8,-,0.07,Rain,Heavy Rain,300,2012-10-19 12:26:00
8:34 AM,57.2,57.2,100,29.76,1.5,WNW,4.6,-,0.09,Rain,Light Rain,290,2012-10-19 12:34:00
8:39 AM,57.2,57.2,100,29.76,2.0,Calm,Calm,-,0.09,Rain,Light Rain,0,2012-10-19 12:39:00
8:56 AM,57.9,57.0,97,29.75,2.0,East,3.5,-,0.09,,Overcast,90,2012-10-19 12:56:00
9:17 AM,59.0,57.2,94,29.75,2.0,ESE,4.6,-,N/A,,Overcast,110,2012-10-19 13:17:00
9:25 AM,59.0,57.2,94,29.75,2.0,Calm,Calm,-,N/A,,Overcast,0,2012-10-19 13:25:00
9:51 AM,59.0,57.2,94,29.75,2.0,Calm,Calm,-,N/A,,Overcast,0,2012-10-19 13:51:00
9:56 AM,59.0,57.0,93,29.75,2.0,Calm,Calm,-,N/A,,Overcast,0,2012-10-19 13:56:00
10:13 AM,59.0,57.2,94,29.74,2.0,Calm,Calm,-,N/A,,Overcast,0,2012-10-19 14:13:00
10:45 AM,60.8,59.0,94,29.72,1.0,SSE,3.5,-,N/A,,Overcast,160,2012-10-19 14:45:00
10:50 AM,60.8,59.0,94,29.72,2.5,SE,3.5,-,N/A,,Overcast,140,2012-10-19 14:50:00
10:56 AM,61.0,59.0,93,29.73,3.0,SSE,4.6,-,N/A,,Overcast,160,2012-10-19 14:56:00
11:56 AM,63.0,59.0,87,29.72,4.0,Calm,Calm,-,N/A,,Overcast,0,2012-10-19 15:56:00
12:56 PM,64.0,61.0,90,29.70,4.0,ESE,3.5,-,N/A,,Overcast,110,2012-10-19 16:56:00
1:33 PM,62.6,60.8,94,29.69,4.0,Calm,Calm,-,N/A,,Overcast,0,2012-10-19 17:33:00
1:41 PM,62.6,60.8,94,29.69,4.0,Calm,Calm,-,N/A,,Mostly Cloudy,0,2012-10-19 17:41:00
1:56 PM,63.0,61.0,93,29.68,4.0,Calm,Calm,-,N/A,,Mostly Cloudy,0,2012-10-19 17:56:00
2:37 PM,64.4,60.8,88,29.66,5.0,WNW,4.6,-,N/A,,Scattered Clouds,290,2012-10-19 18:37:00
2:56 PM,64.4,60.8,88,29.66,5.0,WNW,6.9,-,N/A,,Mostly Cloudy,300,2012-10-19 18:56:00
3:56 PM,64.9,60.1,84,29.65,6.0,Variable,4.6,-,N/A,,Haze,0,2012-10-19 19:56:00
4:56 PM,66.2,60.8,83,29.63,7.0,Calm,Calm,-,N/A,,Mostly Cloudy,0,2012-10-19 20:56:00
5:13 PM,66.2,60.8,83,29.63,7.0,Calm,Calm,-,N/A,,Scattered Clouds,0,2012-10-19 21:13:00
5:56 PM,62.1,60.1,93,29.61,7.0,Calm,Calm,-,N/A,,Scattered Clouds,0,2012-10-19 21:56:00
6:56 PM,59.0,57.9,96,29.63,7.0,Calm,Calm,-,N/A,,Mostly Cloudy,0,2012-10-19 22:56:00
7:13 PM,60.8,59.0,94,29.61,7.0,NNW,3.5,-,N/A,Thunderstorm,Thunderstorm,330,2012-10-19 23:13:00
7:28 PM,60.8,59.0,94,29.63,5.0,ESE,10.4,-,0.00,Rain-Thunderstorm,Light Thunderstorms and Rain,120,2012-10-19 23:28:00
7:46 PM,60.8,57.2,88,29.62,7.0,ESE,6.9,-,0.02,Rain-Thunderstorm,Light Thunderstorms and Rain,110,2012-10-19 23:46:00
7:56 PM,60.1,57.0,90,29.62,8.0,ENE,4.6,-,0.02,,Mostly Cloudy,60,2012-10-19 23:56:00
8:56 PM,59.0,57.0,93,29.63,7.0,Calm,Calm,-,N/A,,Mostly Cloudy,0,2012-10-20 00:56:00
9:56 PM,57.2,55.4,94,29.64,6.0,ESE,3.5,-,N/A,,Scattered Clouds,110,2012-10-20 01:56:00
10:56 PM,55.9,55.0,97,29.65,2.5,East,3.5,-,N/A,,Clear,100,2012-10-20 02:56:00
11:54 PM,55.4,55.4,100,29.65,0.2,ENE,3.5,-,N/A,Fog,Fog,70,2012-10-20 03:54:00
11:56 PM,55.9,55.0,97,29.65,0.2,ENE,4.6,-,N/A,Fog,Fog,60,2012-10-20 03:56:00
11:58 PM,55.4,55.4,100,29.65,0.2,NE,4.6,-,N/A,Fog,Fog,50,2012-10-20 03:58:00